Content
SEND FEEDBACK

Daily
Averages
Monthly
Summary
United States of America

SILVER SPRINGS, FLORIDA


Home > North America > United States > Florida
Elevation: 66 feet     Latitude: 29 12N     Longitude: 082 05W

WEATHER
 
SELECT A DAY
Number of Records: 415,285;   Date Range: 1/1/95 - 8/12/14
 
SHARE

PRINT THIS DATA

[ ← Previous Day ]
WEATHER ALMANAC - JANUARY 31, 2013
[ Next Day → ]
[ °C ]   °F
Weather ElementAverageHighLow
Temperature51.4 °F60.8 °F (2:50 pm)39.2 °F (11:35 pm)
Dewpoint34.7 °F46.4 °F (12:35 am)19.4 °F (4:50 pm)
Humidity56.3 %82 % (7:50 am)20 % (4:50 pm)
Barometer30.12 in30.27 in (10:35 pm)29.98 in (12:35 am)
Wind Speed5.9 mph13.8 mph (9:45 am)
Wind Gust18.4 mph (12:35 am)
Weather ElementAverage
Visibility9.7 mi
Wind DirectionWNW (276.1 °)

Weather ElementTotal
Precipitation0.19 in
Heating Degree Days15 (Base 65)
Averaged from 44 records on January 31, 2013
WEATHER CONDITIONS BREAKOUT
WIND DIRECTION BREAKOUT
WEATHER BY HOUR - JANUARY 31, 2013
[ °C ]   °F
Local TimeTemperatureDewpointHumidityBarometerVisibilityWind DirectionWind SpeedGust SpeedPrecipitationEventsConditions
12:35 AM55.4 °F46.4 °F72 %29.98 in5.0 miWest (270°)11.5 mph18.4 mph0.03 inOvercast
12:55 AM55.4 °F46.4 °F72 %29.99 in5.0 miWNW (300°)5.8 mph0.04 inOvercast
1:15 AM53.6 °F46.4 °F77 %29.98 in5.0 miNW (320°)3.5 mph0.04 inOvercast
1:35 AM53.6 °F44.6 °F72 %29.98 in10.0 miSW (220°)4.6 mph0.04 inMostly Cloudy
1:55 AM53.6 °F44.6 °F72 %29.98 in10.0 miSW (230°)3.5 mph0.04 inOvercast
2:15 AM53.6 °F46.4 °F77 %29.99 in10.0 miWSW (240°)4.6 mphOvercast
2:35 AM55.4 °F46.4 °F72 %29.99 in10.0 miSW (230°)3.5 mphOvercast
2:55 AM55.4 °F46.4 °F72 %29.99 in10.0 miWest (280°)3.5 mphOvercast
3:15 AM55.4 °F46.4 °F72 %30.01 in10.0 miWest (280°)4.6 mphOvercast
3:35 AM55.4 °F46.4 °F72 %30.00 in10.0 miNW (310°)4.6 mphOvercast
3:55 AM55.4 °F44.6 °F67 %30.00 in10.0 miWest (280°)3.5 mphMostly Cloudy
4:15 AM55.4 °F44.6 °F67 %30.01 in10.0 miWNW (290°)5.8 mphMostly Cloudy
4:35 AM55.4 °F44.6 °F67 %30.01 in10.0 miWNW (300°)4.6 mphMostly Cloudy
4:55 AM53.6 °F42.8 °F67 %30.02 in10.0 miNW (320°)4.6 mphPartly Cloudy
5:15 AM53.6 °F42.8 °F67 %30.02 in10.0 miNW (310°)3.5 mphClear
5:35 AM51.8 °F42.8 °F71 %30.03 in10.0 miNW (320°)5.8 mphClear
5:55 AM51.8 °F41.0 °F67 %30.05 in10.0 miWNW (300°)5.8 mphClear
6:15 AM51.8 °F39.2 °F62 %30.06 in10.0 miWNW (300°)6.9 mphClear
6:35 AM51.8 °F37.4 °F58 %30.08 in10.0 miWNW (300°)9.2 mphClear
6:50 AM51.8 °F42.8 °F71 %30.08 in10.0 miNW (310°)9.2 mphPartly Cloudy
7:50 AM48.2 °F42.8 °F82 %30.13 in10.0 miNW (310°)6.9 mphClear
8:50 AM50.0 °F42.8 °F76 %30.15 in10.0 miNNW (330°)10.4 mphPartly Cloudy
9:45 AM51.8 °F41.0 °F67 %30.18 in10.0 miNW (310°)13.8 mphPartly Cloudy
10:50 AM53.6 °F30.2 °F41 %30.19 in10.0 miNW (320°)13.8 mph18.4 mphClear
11:50 AM55.4 °F30.2 °F38 %30.19 in10.0 miNW (320°)13.8 mph18.4 mphClear
12:50 PM57.2 °F26.6 °F31 %30.17 in10.0 miNNW (340°)10.4 mphClear
1:50 PM59.0 °F21.2 °F23 %30.16 in10.0 miNW (310°)10.4 mph18.4 mphClear
2:50 PM60.8 °F21.2 °F22 %30.16 in10.0 miNNW (330°)11.5 mphClear
3:50 PM60.8 °F21.2 °F22 %30.16 in10.0 miWNW (290°)6.9 mphClear
4:50 PM60.8 °F19.4 °F20 %30.17 in10.0 miNW (320°)10.4 mphClear
5:50 PM57.2 °F21.2 °F25 %30.16 in10.0 miNNW (330°)5.8 mphClear
6:50 PM50.0 °F23.0 °F35 %30.19 in10.0 miCalmClear
7:55 PM48.2 °F23.0 °F37 %30.22 in10.0 miNNW (340°)3.5 mphClear
8:15 PM44.6 °F23.0 °F43 %30.23 in10.0 miCalmClear
8:35 PM44.6 °F24.8 °F46 %30.24 in10.0 miCalmClear
8:55 PM42.8 °F26.6 °F53 %30.25 in10.0 miWNW (290°)5.8 mphClear
9:15 PM44.6 °F24.8 °F46 %30.25 in10.0 miNW (320°)3.5 mphClear
9:35 PM44.6 °F24.8 °F46 %30.25 in10.0 miNNW (330°)3.5 mphClear
10:15 PM42.8 °F24.8 °F49 %30.26 in10.0 miNNW (330°)4.6 mphClear
10:35 PM42.8 °F26.6 °F53 %30.27 in10.0 miNNW (330°)4.6 mphClear
10:55 PM42.8 °F26.6 °F53 %30.26 in10.0 miCalmClear
11:15 PM41.0 °F26.6 °F57 %30.27 in10.0 miNW (320°)3.5 mphClear
11:35 PM39.2 °F26.6 °F61 %30.27 in10.0 miNNW (330°)5.8 mphClear
11:55 PM41.0 °F26.6 °F57 %30.27 in10.0 miNNW (340°)3.5 mphClear
Hourly data recorded from KOCF, located miles away from Silver Springs, Florida







STORIES FROM OUR PARTNERS